Date,TemperatureHighF,TemperatureAvgF,TemperatureLowF,DewpointHighF,DewpointAvgF,DewpointLowF,HumidityHigh,HumidityAvg,HumidityLow,PressureMaxIn,PressureMinIn,WindSpeedMaxMPH,WindSpeedAvgMPH,GustSpeedMaxMPH,PrecipitationSumIn
2013-7-1,78,75,72,78,74,71,98,98,98,29.99,29.83,4,0,0,2.47
2013-7-2,85,78,74,84,77,73,98,98,98,30.11,29.98,4,0,0,0.01
2013-7-3,84,78,74,84,78,73,98,98,98,30.18,30.10,3,0,0,0.06
2013-7-4,91,83,75,90,82,74,98,98,98,30.19,30.08,5,1,0,0.00
2013-7-5,93,84,75,92,84,74,98,98,98,30.15,30.02,5,1,0,0.11
2013-7-6,94,84,76,93,84,76,98,98,98,30.07,29.95,3,0,0,0.00
2013-7-7,96,85,74,95,84,74,98,98,98,30.00,29.85,5,0,0,0.19
2013-7-8,89,80,70,89,79,70,98,98,98,29.97,29.89,4,0,0,0.00
2013-7-9,90,81,71,89,80,70,98,98,98,30.01,29.92,4,0,0,0.00
2013-7-10,87,81,76,86,81,75,98,98,98,29.95,29.73,6,1,0,0.31
2013-7-11,87,79,72,86,79,72,98,98,98,29.86,29.73,3,0,0,0.02
2013-7-12,80,74,68,80,73,67,98,98,98,30.05,29.86,6,0,0,1.71
2013-7-13,81,73,67,80,73,66,98,98,98,30.22,30.05,2,0,0,0.51
2013-7-14,92,82,73,92,82,73,98,98,98,30.28,30.16,3,0,0,0.00
2013-7-15,94,85,77,93,84,76,98,98,98,30.19,30.06,5,0,0,0.00
2013-7-16,95,84,72,94,83,72,98,98,98,30.15,30.06,3,0,0,0.00
2013-7-17,97,85,74,96,84,73,98,98,98,30.14,29.99,3,0,0,0.00
2013-7-18,97,86,76,96,86,76,98,98,98,30.00,29.88,4,0,0,0.00
2013-7-19,97,88,79,96,88,78,98,98,98,29.91,29.71,6,1,0,0.00
2013-7-20,93,86,80,92,85,79,98,98,98,29.77,29.65,7,1,0,0.00
2013-7-21,88,80,74,87,80,73,98,98,98,29.90,29.77,2,0,0,0.00
2013-7-22,85,76,72,84,76,71,98,98,98,29.90,29.74,3,0,0,7.10
2013-7-23,88,78,73,88,78,72,98,98,98,29.74,29.48,4,0,0,6.93
2013-7-24,81,75,68,80,75,68,98,98,98,29.88,29.54,5,1,0,0.00
2013-7-25,70,66,63,69,65,62,98,98,98,30.00,29.88,4,1,0,0.00
2013-7-26,83,74,66,83,73,65,98,98,98,29.98,29.92,6,0,0,0.00
2013-7-27,84,74,63,84,73,62,98,98,98,29.99,29.89,4,0,0,0.00
2013-7-28,80,72,66,79,72,65,98,98,98,29.93,29.86,3,0,0,1.09
2013-7-29,85,76,69,84,75,68,98,98,98,30.04,29.89,5,0,0,0.05
2013-7-30,81,71,59,80,70,59,98,98,98,30.11,30.04,5,0,0,0.00
2013-7-31,83,72,60,82,71,59,98,98,98,30.10,29.97,2,0,0,0.00